Weather History for LFBM - October, 2012

Change the Weather History Date:

Saturday, October 6, 2012

  Actual Average Record
Temperature  
Mean Temperature 68 °F -  
Max Temperature 84 °F 63 °F 84 °F (2012)
Min Temperature 52 °F 47 °F 42 °F (2014)
Cooling Degree Days 3    
Growing Degree Days 18 (Base 50)    
Moisture  
Dew Point 55 °F    
Average Humidity 70    
Maximum Humidity 100    
Minimum Humidity 30    
Precipitation  
Precipitation 0.00 in - - ()
Sea Level Pressure  
Sea Level Pressure 30.02 in    
Wind  
Wind Speed 4 mph ()    
Max Wind Speed 8 mph    
Max Gust Speed -    
Visibility 5.6 miles    
Events      
Averages and records for this station are not official NWS values.
T = Trace of Precipitation, MM = Missing Value Source: Averaged Metar Reports

Daily Weather History Graph

Daily Weather History Graph

Search for Another Location

Airport or City:

Trip Planner

Search our weather history database for the weather conditions in past years. The results will help you decide how hot, cold, wet, or windy it might be!

Date:

Astronomy

Oct. 06, 2012 Rise Set
Actual Time 8:05 AM CEST 7:33 PM CEST
Civil Twilight 7:37 AM CEST 8:02 PM CEST
Nautical Twilight 7:03 AM CEST 8:35 PM CEST
Astronomical Twilight 6:30 AM CEST 9:09 PM CEST
Moon 11:26 PM CEST (10/6) 1:58 PM CEST (10/6)
Length of Visible Light 12h 25m
Length of Day
11h 27m
Waning Gibbous, 68% of the Moon is Illuminated
Oct 6
Waning Gibbous
Oct 8
Last Quarter
Oct 15
New
Oct 22
First Quarter
Oct 29
Full

Hourly Weather History & Observations

Time (CEST) Temp. Heat Index Dew Point Humidity Pressure Visibility Wind Dir Wind Speed Gust Speed Precip Events Conditions
12:00 AM 59.0 °F - 55.4 °F 88% 30.01 in 6.2 mi East 4.6 mph - N/A   Unknown
12:30 AM 59.0 °F - 55.4 °F 88% 30.01 in 6.2 mi East 4.6 mph - N/A   Unknown
1:00 AM 57.2 °F - 53.6 °F 88% 30.01 in 6.2 mi East 5.8 mph - N/A   Unknown
1:30 AM 57.2 °F - 53.6 °F 88% 30.01 in 6.2 mi East 3.5 mph - N/A   Unknown
2:00 AM 56 °F - 53 °F 87% 30.03 in 31 mi East 4.6 mph - -   Clear
2:00 AM 55.4 °F - 53.6 °F 94% 30.01 in 6.2 mi East 4.6 mph - N/A   Unknown
2:30 AM 55.4 °F - 53.6 °F 94% 30.01 in 6.2 mi East 4.6 mph - N/A   Unknown
3:00 AM 55.4 °F - 53.6 °F 94% 30.01 in 6.2 mi East 4.6 mph - N/A   Unknown
3:30 AM 55.4 °F - 53.6 °F 94% 30.01 in 5.6 mi East 5.8 mph - N/A   Unknown
4:00 AM 55.4 °F - 53.6 °F 94% 30.01 in 4.3 mi East 4.6 mph - N/A   Unknown
4:30 AM 53.6 °F - 53.6 °F 100% 30.01 in 3.1 mi East 4.6 mph - N/A   Mist
5:00 AM 53.6 °F - 53.6 °F 100% 30.01 in - East 4.6 mph - N/A   Mist
5:30 AM 53.6 °F - 51.8 °F 94% 30.01 in - East 3.5 mph - N/A   Mist
6:00 AM 53.6 °F - 53.6 °F 100% 30.01 in 2.2 mi East 4.6 mph - N/A   Mist
6:30 AM 55.4 °F - 53.6 °F 94% 30.01 in - East 5.8 mph - N/A   Mist
7:00 AM 55.4 °F - 53.6 °F 94% 30.01 in 3.1 mi East 5.8 mph - N/A   Mist
7:30 AM 53.6 °F - 53.6 °F 100% 30.01 in 3.1 mi East 5.8 mph - N/A   Mist
8:00 AM 53 °F - 52 °F 93% 30.03 in 3 mi East 5.8 mph - -   Clear
8:00 AM 53.6 °F - 51.8 °F 94% 30.01 in 3.1 mi East 5.8 mph - N/A   Mist
8:30 AM 53.6 °F - 53.6 °F 100% 30.01 in 3.1 mi East 5.8 mph - N/A   Mist
9:00 AM 55.4 °F - 53.6 °F 94% 30.01 in 5.0 mi East 4.6 mph - N/A   Unknown
9:30 AM 57.2 °F - 55.4 °F 94% 30.01 in 6.2 mi East 4.6 mph - N/A   Unknown
10:00 AM 60.8 °F - 53.6 °F 77% 30.01 in 6.2 mi East 6.9 mph - N/A   Unknown
10:30 AM 62.6 °F - 55.4 °F 77% 30.01 in 6.2 mi East 6.9 mph - N/A   Unknown
11:00 AM 66.2 °F - 53.6 °F 64% 30.01 in 6.2 mi East 6.9 mph - N/A   Unknown
11:30 AM 68.0 °F - 55.4 °F 64% 30.01 in 6.2 mi East 4.6 mph - N/A   Unknown
12:00 PM 71.6 °F - 55.4 °F 57% 30.01 in 5.0 mi East 4.6 mph - N/A   Unknown
12:30 PM 73.4 °F - 57.2 °F 57% 30.01 in 6.2 mi East 5.8 mph - N/A   Unknown
1:00 PM 77.0 °F - 57.2 °F 50% 30.01 in 6.2 mi Variable 2.3 mph - N/A   Unknown
1:30 PM 78.8 °F - 57.2 °F 47% 30.01 in 6.2 mi Calm Calm - N/A   Unknown
2:00 PM 80 °F - 56 °F 34% 30.02 in 37 mi East 1.2 mph - -   Clear
2:00 PM 78.8 °F - 57.2 °F 47% 30.01 in 6.2 mi Variable 1.2 mph - N/A   Unknown
2:30 PM 80.6 °F 80.5 °F 55.4 °F 42% 30.01 in 6.2 mi Variable 1.2 mph - N/A   Unknown
3:00 PM 80.6 °F 80.3 °F 53.6 °F 39% 30.01 in 6.2 mi West 4.6 mph - N/A   Unknown
3:30 PM 84.2 °F 82.8 °F 53.6 °F 35% 30.01 in 6.2 mi NW 5.8 mph - N/A   Unknown
4:00 PM 84.2 °F - 50.0 °F 30% 29.98 in 6.2 mi WNW 6.9 mph - N/A   Unknown
4:30 PM 82.4 °F - 50.0 °F 32% 29.98 in 6.2 mi West 8.1 mph - N/A   Unknown
5:00 PM 80.6 °F 80.3 °F 53.6 °F 39% 29.98 in 6.2 mi NW 8.1 mph - N/A   Unknown
5:30 PM 78.8 °F - 55.4 °F 44% 29.98 in 6.2 mi NNW 5.8 mph - N/A   Unknown
6:00 PM 77.0 °F - 55.4 °F 47% 29.98 in 6.2 mi NNW 5.8 mph - N/A   Unknown
6:30 PM 75.2 °F - 53.6 °F 47% 30.01 in 6.2 mi NNW 2.3 mph - N/A   Unknown
7:00 PM 75.2 °F - 55.4 °F 50% 30.01 in 6.2 mi Variable 1.2 mph - N/A   Unknown
7:30 PM 73.4 °F - 55.4 °F 53% 30.01 in 6.2 mi Calm Calm - N/A   Unknown
8:00 PM 71 °F - 56 °F 50% 30.03 in 37 mi Calm Calm - -   Clear
8:00 PM 71.6 °F - 55.4 °F 57% 30.04 in 6.2 mi Calm Calm - N/A   Unknown
8:30 PM 69.8 °F - 57.2 °F 64% 30.04 in 6.2 mi West 2.3 mph - N/A   Unknown
9:00 PM 69.8 °F - 57.2 °F 64% 30.06 in 6.2 mi WSW 2.3 mph - N/A   Unknown
9:30 PM 68.0 °F - 57.2 °F 68% 30.06 in 6.2 mi West 2.3 mph - N/A   Unknown
10:00 PM 68.0 °F - 55.4 °F 64% 30.06 in 6.2 mi Variable 1.2 mph - N/A   Unknown
10:30 PM 68.0 °F - 55.4 °F 64% 30.09 in 6.2 mi SSW 2.3 mph - N/A   Unknown
11:00 PM 68.0 °F - 57.2 °F 68% 30.06 in 6.2 mi South 2.3 mph - N/A   Unknown
11:30 PM 68.0 °F - 57.2 °F 68% 30.09 in 6.2 mi Variable 2.3 mph - N/A   Unknown